Time,TemperatureF,DewpointF,PressureIn,WindDirection,WindDirectionDegrees,WindSpeedMPH,WindSpeedGustMPH,Humidity,HourlyPrecipIn,Conditions,Clouds,dailyrainin,SolarRadiationWatts/m^2,SoftwareType,DateUTC
2013-06-10 00:12:00,69.0,31.0,-100.00,West,281,4.0,6.0,24,0.00,,,0.00,0.000000,,2013-06-10 06:12:00,
2013-06-10 00:22:00,69.0,31.0,-100.00,West,281,4.0,6.0,24,0.00,,,0.00,0.000000,,2013-06-10 06:22:00,
2013-06-10 00:32:00,69.0,31.0,-100.00,West,281,4.0,6.0,24,0.00,,,0.00,0.000000,,2013-06-10 06:32:00,
2013-06-10 00:42:00,69.0,31.0,-100.00,West,281,4.0,6.0,24,0.00,,,0.00,0.000000,,2013-06-10 06:42:00,
2013-06-10 00:51:00,65.0,31.0,-100.00,NW,315,2.0,5.0,28,0.00,,,0.00,0.000000,,2013-06-10 06:51:00,
2013-06-10 01:12:00,65.0,31.0,-100.00,NW,315,2.0,5.0,28,0.00,,,0.00,0.000000,,2013-06-10 07:12:00,
2013-06-10 01:22:00,65.0,31.0,-100.00,NW,315,2.0,5.0,28,0.00,,,0.00,0.000000,,2013-06-10 07:22:00,
2013-06-10 01:32:00,65.0,31.0,-100.00,NW,315,2.0,5.0,28,0.00,,,0.00,0.000000,,2013-06-10 07:32:00,
2013-06-10 01:42:00,65.0,31.0,-100.00,NW,315,2.0,5.0,28,0.00,,,0.00,0.000000,,2013-06-10 07:42:00,
2013-06-10 01:51:00,65.0,31.0,-100.00,NE,38,4.0,8.0,28,0.00,,,0.00,0.000000,,2013-06-10 07:51:00,
2013-06-10 02:12:00,65.0,31.0,-100.00,NE,38,4.0,8.0,28,0.00,,,0.00,0.000000,,2013-06-10 08:12:00,
2013-06-10 02:22:00,65.0,31.0,-100.00,NE,38,4.0,8.0,28,0.00,,,0.00,0.000000,,2013-06-10 08:22:00,
2013-06-10 02:32:00,65.0,31.0,-100.00,NE,38,4.0,8.0,28,0.00,,,0.00,0.000000,,2013-06-10 08:32:00,
2013-06-10 02:42:00,65.0,31.0,-100.00,NE,38,4.0,8.0,28,0.00,,,0.00,0.000000,,2013-06-10 08:42:00,
2013-06-10 02:51:00,64.0,33.0,-100.00,ENE,72,3.0,12.0,31,0.00,,,0.00,0.000000,,2013-06-10 08:51:00,
2013-06-10 03:12:00,64.0,33.0,-100.00,ENE,72,3.0,12.0,31,0.00,,,0.00,0.000000,,2013-06-10 09:12:00,
2013-06-10 03:22:00,64.0,33.0,-100.00,ENE,72,3.0,12.0,31,0.00,,,0.00,0.000000,,2013-06-10 09:22:00,
2013-06-10 03:32:00,64.0,33.0,-100.00,ENE,72,3.0,12.0,31,0.00,,,0.00,0.000000,,2013-06-10 09:32:00,
2013-06-10 03:42:00,64.0,33.0,-100.00,ENE,72,3.0,12.0,31,0.00,,,0.00,0.000000,,2013-06-10 09:42:00,
2013-06-10 03:51:00,63.0,31.0,-100.00,East,81,4.0,13.0,30,0.00,,,0.00,0.000000,,2013-06-10 09:51:00,
2013-06-10 04:12:00,63.0,31.0,-100.00,East,81,4.0,13.0,30,0.00,,,0.00,0.000000,,2013-06-10 10:12:00,
2013-06-10 04:22:00,63.0,31.0,-100.00,East,81,4.0,13.0,30,0.00,,,0.00,0.000000,,2013-06-10 10:22:00,
2013-06-10 04:33:00,63.0,31.0,-100.00,East,81,4.0,13.0,30,0.00,,,0.00,0.000000,,2013-06-10 10:33:00,
2013-06-10 04:42:00,63.0,31.0,-100.00,East,81,4.0,13.0,30,0.00,,,0.00,0.000000,,2013-06-10 10:42:00,
2013-06-10 04:51:00,61.0,32.0,-100.00,East,87,4.0,8.0,33,0.00,,,0.00,0.000000,,2013-06-10 10:51:00,
2013-06-10 05:12:00,61.0,32.0,-100.00,East,87,4.0,8.0,33,0.00,,,0.00,0.000000,,2013-06-10 11:12:00,
2013-06-10 05:22:00,61.0,32.0,-100.00,East,87,4.0,8.0,33,0.00,,,0.00,0.000000,,2013-06-10 11:22:00,
2013-06-10 05:32:00,61.0,32.0,-100.00,East,87,4.0,8.0,33,0.00,,,0.00,0.000000,,2013-06-10 11:32:00,
2013-06-10 05:42:00,61.0,32.0,-100.00,East,87,4.0,8.0,33,0.00,,,0.00,0.000000,,2013-06-10 11:42:00,
2013-06-10 07:51:00,64.0,34.0,-100.00,North,10,6.0,14.0,33,-99.99,,,0.00,347.000000,,2013-06-10 13:51:00,
2013-06-10 08:12:00,64.0,34.0,-100.00,North,10,6.0,14.0,33,-99.99,,,0.00,347.000000,,2013-06-10 14:12:00,
2013-06-10 08:22:00,64.0,34.0,-100.00,North,10,6.0,14.0,33,-99.99,,,0.00,347.000000,,2013-06-10 14:22:00,
2013-06-10 08:32:00,64.0,34.0,-100.00,North,10,6.0,14.0,33,-99.99,,,0.00,347.000000,,2013-06-10 14:32:00,
2013-06-10 08:42:00,64.0,34.0,-100.00,North,10,6.0,14.0,33,-99.99,,,0.00,347.000000,,2013-06-10 14:42:00,
2013-06-10 08:51:00,71.0,35.0,-100.00,East,87,5.0,15.0,27,0.00,,,0.00,505.000000,,2013-06-10 14:51:00,
2013-06-10 09:12:00,71.0,35.0,-100.00,East,87,5.0,15.0,27,0.00,,,0.00,505.000000,,2013-06-10 15:12:00,
2013-06-10 09:22:00,71.0,35.0,-100.00,East,87,5.0,15.0,27,0.00,,,0.00,505.000000,,2013-06-10 15:22:00,
2013-06-10 09:33:00,71.0,35.0,-100.00,East,87,5.0,15.0,27,0.00,,,0.00,505.000000,,2013-06-10 15:33:00,
2013-06-10 09:43:00,71.0,35.0,-100.00,East,87,5.0,15.0,27,0.00,,,0.00,505.000000,,2013-06-10 15:43:00,
2013-06-10 09:51:00,75.0,35.0,-100.00,NE,52,5.0,9.0,23,0.00,,,0.00,680.000000,,2013-06-10 15:51:00,
2013-06-10 10:12:00,75.0,35.0,-100.00,NE,52,5.0,9.0,23,0.00,,,0.00,680.000000,,2013-06-10 16:12:00,
2013-06-10 10:23:00,75.0,35.0,-100.00,NE,52,5.0,9.0,23,0.00,,,0.00,680.000000,,2013-06-10 16:23:00,
2013-06-10 10:33:00,75.0,35.0,-100.00,NE,52,5.0,9.0,23,0.00,,,0.00,680.000000,,2013-06-10 16:33:00,
2013-06-10 10:42:00,75.0,35.0,-100.00,NE,52,5.0,9.0,23,0.00,,,0.00,680.000000,,2013-06-10 16:42:00,
2013-06-10 10:51:00,78.0,37.0,-100.00,North,358,4.0,9.0,23,0.00,,,0.00,949.000000,,2013-06-10 16:51:00,
2013-06-10 11:14:00,78.0,37.0,-100.00,North,358,4.0,9.0,23,0.00,,,0.00,949.000000,,2013-06-10 17:14:00,
2013-06-10 11:26:00,78.0,37.0,-100.00,North,358,4.0,9.0,23,0.00,,,0.00,949.000000,,2013-06-10 17:26:00,
2013-06-10 11:38:00,78.0,37.0,-100.00,North,358,4.0,9.0,23,0.00,,,0.00,949.000000,,2013-06-10 17:38:00,
2013-06-10 11:48:00,78.0,37.0,-100.00,North,358,4.0,9.0,23,0.00,,,0.00,949.000000,,2013-06-10 17:48:00,
2013-06-10 11:51:00,85.0,35.0,-100.00,NNE,13,4.0,8.0,17,0.00,,,0.00,1081.000000,,2013-06-10 17:51:00,
2013-06-10 12:14:00,85.0,35.0,-100.00,NNE,13,4.0,8.0,17,0.00,,,0.00,1081.000000,,2013-06-10 18:14:00,
2013-06-10 12:24:00,85.0,35.0,-100.00,NNE,13,4.0,8.0,17,0.00,,,0.00,1081.000000,,2013-06-10 18:24:00,
2013-06-10 12:34:00,85.0,35.0,-100.00,NNE,13,4.0,8.0,17,0.00,,,0.00,1081.000000,,2013-06-10 18:34:00,
2013-06-10 12:48:00,85.0,35.0,-100.00,NNE,13,4.0,8.0,17,0.00,,,0.00,1081.000000,,2013-06-10 18:48:00,
2013-06-10 12:51:00,90.0,33.0,-100.00,NNW,344,7.0,12.0,13,0.00,,,0.00,1173.000000,,2013-06-10 18:51:00,
2013-06-10 13:12:00,90.0,33.0,-100.00,NNW,344,7.0,12.0,13,0.00,,,0.00,1173.000000,,2013-06-10 19:12:00,
2013-06-10 13:22:00,90.0,33.0,-100.00,NNW,344,7.0,12.0,13,0.00,,,0.00,1173.000000,,2013-06-10 19:22:00,
2013-06-10 13:32:00,90.0,33.0,-100.00,NNW,344,7.0,12.0,13,0.00,,,0.00,1173.000000,,2013-06-10 19:32:00,
2013-06-10 13:42:00,90.0,33.0,-100.00,NNW,344,7.0,12.0,13,0.00,,,0.00,1173.000000,,2013-06-10 19:42:00,
2013-06-10 13:51:00,92.0,28.0,-100.00,WNW,282,15.0,24.0,10,0.00,,,0.00,1110.000000,,2013-06-10 19:51:00,
2013-06-10 14:12:00,92.0,28.0,-100.00,WNW,282,15.0,24.0,10,0.00,,,0.00,1110.000000,,2013-06-10 20:12:00,
2013-06-10 14:22:00,92.0,28.0,-100.00,WNW,282,15.0,24.0,10,0.00,,,0.00,1110.000000,,2013-06-10 20:22:00,
2013-06-10 14:32:00,92.0,28.0,-100.00,WNW,282,15.0,24.0,10,0.00,,,0.00,1110.000000,,2013-06-10 20:32:00,
2013-06-10 14:42:00,92.0,28.0,-100.00,WNW,282,15.0,24.0,10,0.00,,,0.00,1110.000000,,2013-06-10 20:42:00,
2013-06-10 14:51:00,94.0,29.0,-100.00,WNW,283,7.0,24.0,10,0.00,,,0.00,1037.000000,,2013-06-10 20:51:00,
2013-06-10 15:12:00,94.0,29.0,-100.00,WNW,283,7.0,24.0,10,0.00,,,0.00,1037.000000,,2013-06-10 21:12:00,
2013-06-10 15:22:00,94.0,29.0,-100.00,WNW,283,7.0,24.0,10,0.00,,,0.00,1037.000000,,2013-06-10 21:22:00,
2013-06-10 15:33:00,94.0,29.0,-100.00,WNW,283,7.0,24.0,10,0.00,,,0.00,1037.000000,,2013-06-10 21:33:00,
2013-06-10 15:43:00,94.0,29.0,-100.00,WNW,283,7.0,24.0,10,0.00,,,0.00,1037.000000,,2013-06-10 21:43:00,
2013-06-10 15:51:00,93.0,26.0,-100.00,WSW,253,11.0,22.0,9,0.00,,,0.00,878.000000,,2013-06-10 21:51:00,
2013-06-10 16:13:00,93.0,26.0,-100.00,WSW,253,11.0,22.0,9,0.00,,,0.00,878.000000,,2013-06-10 22:13:00,
2013-06-10 16:22:00,93.0,26.0,-100.00,WSW,253,11.0,22.0,9,0.00,,,0.00,878.000000,,2013-06-10 22:22:00,
2013-06-10 16:33:00,93.0,26.0,-100.00,WSW,253,11.0,22.0,9,0.00,,,0.00,878.000000,,2013-06-10 22:33:00,
2013-06-10 16:42:00,93.0,26.0,-100.00,WSW,253,11.0,22.0,9,0.00,,,0.00,878.000000,,2013-06-10 22:42:00,
2013-06-10 16:51:00,93.0,26.0,-100.00,WSW,257,12.0,24.0,9,0.00,,,0.00,558.000000,,2013-06-10 22:51:00,
2013-06-10 17:12:00,93.0,26.0,-100.00,WSW,257,12.0,24.0,9,0.00,,,0.00,558.000000,,2013-06-10 23:12:00,
2013-06-10 17:22:00,93.0,26.0,-100.00,WSW,257,12.0,24.0,9,0.00,,,0.00,558.000000,,2013-06-10 23:22:00,
2013-06-10 17:32:00,93.0,26.0,-100.00,WSW,257,12.0,24.0,9,0.00,,,0.00,558.000000,,2013-06-10 23:32:00,
2013-06-10 17:42:00,93.0,26.0,-100.00,WSW,257,12.0,24.0,9,0.00,,,0.00,558.000000,,2013-06-10 23:42:00,
2013-06-10 17:51:00,92.0,28.0,-100.00,SSW,205,8.0,23.0,10,0.00,,,0.00,407.000000,,2013-06-10 23:51:00,
2013-06-10 18:12:00,92.0,28.0,-100.00,SSW,205,8.0,23.0,10,0.00,,,0.00,407.000000,,2013-06-11 00:12:00,
2013-06-10 18:22:00,92.0,28.0,-100.00,SSW,205,8.0,23.0,10,0.00,,,0.00,407.000000,,2013-06-11 00:22:00,
2013-06-10 18:32:00,92.0,28.0,-100.00,SSW,205,8.0,23.0,10,0.00,,,0.00,407.000000,,2013-06-11 00:32:00,
2013-06-10 18:42:00,92.0,28.0,-100.00,SSW,205,8.0,23.0,10,0.00,,,0.00,407.000000,,2013-06-11 00:42:00,
2013-06-10 18:51:00,92.0,25.0,-100.00,SW,228,12.0,25.0,9,0.00,,,0.00,495.000000,,2013-06-11 00:51:00,
2013-06-10 19:12:00,92.0,25.0,-100.00,SW,228,12.0,25.0,9,0.00,,,0.00,495.000000,,2013-06-11 01:12:00,
2013-06-10 19:22:00,92.0,25.0,-100.00,SW,228,12.0,25.0,9,0.00,,,0.00,495.000000,,2013-06-11 01:22:00,
2013-06-10 19:32:00,92.0,25.0,-100.00,SW,228,12.0,25.0,9,0.00,,,0.00,495.000000,,2013-06-11 01:32:00,
2013-06-10 19:42:00,92.0,25.0,-100.00,SW,228,12.0,25.0,9,0.00,,,0.00,495.000000,,2013-06-11 01:42:00,
2013-06-10 19:51:00,87.0,26.0,-100.00,WSW,257,8.0,15.0,11,0.00,,,0.00,119.000000,,2013-06-11 01:51:00,
2013-06-10 20:12:00,87.0,26.0,-100.00,WSW,257,8.0,15.0,11,0.00,,,0.00,119.000000,,2013-06-11 02:12:00,
2013-06-10 20:22:00,87.0,26.0,-100.00,WSW,257,8.0,15.0,11,0.00,,,0.00,119.000000,,2013-06-11 02:22:00,
2013-06-10 20:32:00,87.0,26.0,-100.00,WSW,257,8.0,15.0,11,0.00,,,0.00,119.000000,,2013-06-11 02:32:00,
2013-06-10 20:42:00,87.0,26.0,-100.00,WSW,257,8.0,15.0,11,0.00,,,0.00,119.000000,,2013-06-11 02:42:00,
2013-06-10 20:51:00,83.0,21.0,-100.00,SSW,207,16.0,21.0,10,0.00,,,0.00,39.000000,,2013-06-11 02:51:00,
2013-06-10 21:12:00,83.0,21.0,-100.00,SSW,207,16.0,21.0,10,0.00,,,0.00,39.000000,,2013-06-11 03:12:00,
2013-06-10 21:22:00,83.0,21.0,-100.00,SSW,207,16.0,21.0,10,0.00,,,0.00,39.000000,,2013-06-11 03:22:00,
2013-06-10 21:32:00,83.0,21.0,-100.00,SSW,207,16.0,21.0,10,0.00,,,0.00,39.000000,,2013-06-11 03:32:00,
2013-06-10 21:42:00,83.0,21.0,-100.00,SSW,207,16.0,21.0,10,0.00,,,0.00,39.000000,,2013-06-11 03:42:00,
2013-06-10 22:12:00,81.0,17.0,-100.00,WSW,239,12.0,22.0,9,0.00,,,0.00,0.000000,,2013-06-11 04:12:00,
2013-06-10 22:23:00,81.0,17.0,-100.00,WSW,239,12.0,22.0,9,0.00,,,0.00,0.000000,,2013-06-11 04:23:00,
2013-06-10 22:33:00,81.0,17.0,-100.00,WSW,239,12.0,22.0,9,0.00,,,0.00,0.000000,,2013-06-11 04:33:00,
2013-06-10 23:12:00,79.0,18.0,-100.00,WNW,282,3.0,18.0,10,-99.99,,,0.00,0.000000,,2013-06-11 05:12:00,
2013-06-10 23:22:00,79.0,18.0,-100.00,WNW,282,3.0,18.0,10,-99.99,,,0.00,0.000000,,2013-06-11 05:22:00,
2013-06-10 23:32:00,79.0,18.0,-100.00,WNW,282,3.0,18.0,10,-99.99,,,0.00,0.000000,,2013-06-11 05:32:00,